Location: Fluertsh�userhof
(48.7537°N, 10.3850°E)
Time: 04:38:02
(UTC+00:00)

Resurs 1-3 - Pass Details

Date: 18 September 2020
Orbit: 631 x 632 km, 97.9° (Epoch: 29 October)

Event Time Altitude Azimuth Distance (km) Brightness Sun altitude
Exits shadow 20:01:12 35° 220° (SW) 1,016 4.6 -25.1°
Maximum altitude 20:02:24 44° 261° (W) 873 4.5 -25.2°
Drops below altitude 10° 20:06:38 10° 335° (NNW) 2,025 7.0 -25.8°
Sets 20:08:56 0° 341° (NNW) 2,938 7.9 -26.1°
